Regional Weather Roundup
Issued by NWS

Home | Current Version | Previous Version | Graphics & Text | Print | Product List | Glossary Off
Versions: 1 2 3 4 5 6 7 8 9 10 11 12 13 14 15 16 17 18 19 20 21 22 23 24 25 26 27 28 29 30 31 32 33 34 35 36 37 38 39 40 41 42 43 44 45 46 47 48 49 50

000
ASUS43 KLSX 012307
RWRMO

WEATHER SUMMARY FOR MISSOURI
NATIONAL WEATHER SERVICE SPRINGFIELD MO
500 PM CST SUN FEB 01 2015

NOTE: "FAIR" INDICATES FEW OR NO CLOUDS BELOW 12,000 FEET WITH NO
       SIGNIFICANT WEATHER AND/OR OBSTRUCTIONS TO VISIBILITY.
       CURRENT SKY AND/OR WEATHER CONDITIONS ARE NOT AVAILABLE FOR
       CHILLICOTHE AND FARMINGTON.

MOZ001>031-035>038-043-044-053-054-020000-
...NORTHERN AND WESTERN MISSOURI...

CITY           SKY/WX    TMP DP  RH WIND       PRES   REMARKS
KANSAS CTY INT LGT SNOW  20  16  84 NW23G29   30.01R VSB 3/4 WCI   3
KANSAS C DTWN  FLURRIES  24  17  74 NW17G26   30.03R WCI  11
LEE`S SUMMIT   LGT SNOW  23  18  81 NW17G24   29.99R WCI   9
ST JOSEPH      LGT SNOW  19  15  84 N24G30    30.07R FOG     WCI   2
CHILLICOTHE      N/A     24  18  77 N14G23    29.97R WCI  12
KIRKSVILLE     LGT SNOW  22  18  85 N20G33    29.88R FOG     WCI   7

$$
MOZ066>068-077>081-088>096-101>105-020000-
...SOUTHWEST MISSOURI...

CITY           SKY/WX    TMP DP  RH WIND       PRES   REMARKS
SPRINGFIELD    CLOUDY    28  23  81 NW20G30   29.91R WCI  15
JOPLIN         CLOUDY    25  18  74 NW17      30.03R WCI  12

$$
MOZ032>034-039>042-045>050-055>058-069>072-020000-
...CENTRAL MISSOURI...

CITY           SKY/WX    TMP DP  RH WIND       PRES   REMARKS
COLUMBIA       LGT SNOW  34  33  96 NW14      29.79R FOG     WCI  25
JEFFERSON CITY CLOUDY    35  32  88 NW16G25   29.80R WCI  25
ROLLA          CLOUDY    34  31  88 W17G24    29.75R WCI  23
SEDALIA        LGT SNOW  30  26  85 NW20G29   29.88R FOG     WCI  17
WHITEMAN AFB   LGT SNOW  28  24  86 NW18      29.91R FOG     WCI  15
WARRENSBURG    LGT SNOW  27  23  86 NW15G26   29.95R WCI  15
OSAGE BEACH    CLOUDY    34  27  75 W17G24    29.84R WCI  23

$$
MOZ051-052-059>065-020000-
...EAST CENTRAL MISSOURI...

CITY           SKY/WX    TMP DP  RH WIND       PRES   REMARKS
ST LOUIS INTL  LGT RAIN  38  34  85 NW12      29.69R FOG
SPIRIT OF STL  CLOUDY    37  34  89 W16G22    29.71R WCI  28
ST CHARLES     CLOUDY    37  34  89 NW13      29.70R FOG     WCI  29

$$
MOZ072>076-082>087-097>100-106>115-020000-
...SOUTH CENTRAL AND SOUTHEAST MISSOURI...

CITY           SKY/WX    TMP DP  RH WIND       PRES   REMARKS
CAPE GIRARDEAU CLOUDY    48  45  89 W9        29.67R
FARMINGTON     CLOUDY    43  37  81 NW9       29.70R
POPLAR BLUFF   CLOUDY    48  41  76 W18G25    29.69R
WEST PLAINS    MIX PCPN  36  31  82 W20G30    29.79R WCI  25

$$



USA.gov is the U.S. government's official web portal to all federal, state and local government web resources and services.